Augusta, ME

5:15 PM EST on February 07, 2016 (GMT -0500)
Augusta State

Weather History for KAUG - September, 2013

Change the Weather History Date:

Monday, September 2, 2013

  Actual Average Record
Temperature  
Mean Temperature 66 °F 65 °F  
Max Temperature 69 °F 75 °F 93 °F (2010)
Min Temperature 62 °F 55 °F 46 °F (2001)
Degree Days  
Heating Degree Days 0 2  
Month to date heating degree days 4  
Since 1 July heating degree days 46  
Cooling Degree Days 0 2  
Month to date cooling degree days 4  
Year to date cooling degree days 361  
Growing Degree Days 16 (Base 50)    
Moisture  
Dew Point 64 °F    
Average Humidity 97    
Maximum Humidity 100    
Minimum Humidity 88    
Precipitation  
Precipitation 3.21 in 0.11 in 3.21 in (2013)
Month to date precipitation 0.22  
Year to date precipitation 26.40  
Sea Level Pressure  
Sea Level Pressure 29.85 in    
Wind  
Wind Speed 7 mph (East)    
Max Wind Speed 16 mph    
Max Gust Speed 25 mph    
Visibility 4 miles    
Events Fog , Rain , Thunderstorm    
T = Trace of Precipitation, MM = Missing Value Source: NWS Daily Summary

Daily Weather History Graph

Daily Weather History Graph

Search for Another Location

Airport or City:

Trip Planner

Search our weather history database for the weather conditions in past years. The results will help you decide how hot, cold, wet, or windy it might be!

Date:

Astronomy

Sep. 02, 2013 Rise Set
Actual Time 6:03 AM EDT 7:13 PM EDT
Civil Twilight 5:33 AM EDT 7:43 PM EDT
Nautical Twilight 4:57 AM EDT 8:18 PM EDT
Astronomical Twilight 4:19 AM EDT 8:56 PM EDT
Moon 3:13 AM EDT (9/2) 5:27 PM EDT (9/2)
Length of Visible Light 14h 09m
Length of Day
13h 09m
Waning Crescent, 8% of the Moon is Illuminated
Sep 2
Waning Crescent
Sep 5
New
Sep 12
First Quarter
Sep 19
Full
Sep 26
Last Quarter

Hourly Weather History & Observations

Time (EDT) Temp. Dew Point Humidity Pressure Visibility Wind Dir Wind Speed Gust Speed Precip Events Conditions
12:53 AM 69.1 °F 66.9 °F 93% 29.92 in 9.0 mi NE 5.8 mph - N/A   Overcast
1:53 AM 69.1 °F 66.9 °F 93% 29.91 in 9.0 mi East 3.5 mph - N/A   Overcast
2:01 AM 69.8 °F 66.2 °F 88% 29.91 in 9.0 mi ESE 3.5 mph - N/A   Overcast
2:53 AM 68.0 °F 66.9 °F 96% 29.90 in 7.0 mi East 9.2 mph - 0.00 in Rain Light Rain
3:10 AM 68.0 °F 66.2 °F 94% 29.90 in 7.0 mi East 5.8 mph - 0.01 in Rain Light Rain
3:53 AM 68.0 °F 66.9 °F 96% 29.90 in 10.0 mi ESE 9.2 mph - 0.01 in   Overcast
4:17 AM 66.2 °F 66.2 °F 100% 29.90 in 4.0 mi East 6.9 mph - 0.05 in Rain , Thunderstorm Thunderstorms and Rain
4:34 AM 66.2 °F 66.2 °F 100% 29.91 in 4.0 mi East 8.1 mph - 0.14 in Rain , Thunderstorm Rain
4:53 AM 66.9 °F 66.0 °F 97% 29.90 in 5.0 mi ESE 6.9 mph - 0.21 in Rain , Thunderstorm Rain
5:00 AM 66.2 °F 66.2 °F 100% 29.90 in 4.0 mi ESE 8.1 mph - 0.02 in Rain Rain
5:09 AM 66.2 °F 66.2 °F 100% 29.90 in 4.0 mi ESE 10.4 mph - 0.05 in Rain , Thunderstorm Rain
5:24 AM 66.2 °F 64.4 °F 94% 29.90 in 4.0 mi East 10.4 mph - 0.09 in Rain Rain
5:46 AM 66.2 °F 64.4 °F 94% 29.90 in 3.0 mi ESE 16.1 mph 24.2 mph 0.17 in Rain , Thunderstorm Rain
5:53 AM 64.9 °F 64.0 °F 97% 29.90 in 3.0 mi East 16.1 mph 24.2 mph 0.20 in Rain , Thunderstorm Rain
6:05 AM 64.4 °F 64.4 °F 100% 29.91 in 1.8 mi East 11.5 mph 23.0 mph 0.18 in Rain , Thunderstorm Heavy Rain
6:17 AM 64.4 °F 62.6 °F 94% 29.91 in 3.0 mi East 16.1 mph 25.3 mph 0.27 in Rain , Thunderstorm Thunderstorms and Rain
6:27 AM 64.4 °F 62.6 °F 94% 29.92 in 3.0 mi ESE 12.7 mph 24.2 mph 0.35 in Rain Light Rain
6:31 AM 64.4 °F 62.6 °F 94% 29.93 in 1.8 mi ESE 9.2 mph 23.0 mph 0.43 in Rain Heavy Rain
6:48 AM 62.6 °F 62.6 °F 100% 29.92 in 2.0 mi East 8.1 mph 17.3 mph 0.66 in Rain Heavy Rain
6:53 AM 63.0 °F 62.1 °F 97% 29.92 in 1.2 mi ENE 8.1 mph 17.3 mph 0.90 in Rain Heavy Rain
7:08 AM 62.6 °F 62.6 °F 100% 29.91 in 1.2 mi Variable 5.8 mph - 0.28 in Rain Heavy Rain
7:23 AM 62.6 °F 62.6 °F 100% 29.90 in 2.5 mi East 15.0 mph 21.9 mph 0.37 in Rain Rain
7:31 AM 62.6 °F 62.6 °F 100% 29.90 in 3.0 mi East 9.2 mph 21.9 mph 0.40 in Rain Rain
7:45 AM 62.6 °F 60.8 °F 94% 29.90 in 5.0 mi East 8.1 mph 21.9 mph 0.43 in Rain Light Rain
7:53 AM 63.0 °F 62.1 °F 97% 29.90 in 9.0 mi East 9.2 mph 16.1 mph 0.44 in Rain Light Rain
8:53 AM 63.0 °F 62.1 °F 97% 29.89 in 10.0 mi East 10.4 mph 20.7 mph 0.02 in Rain Light Rain
9:42 AM 62.6 °F 62.6 °F 100% 29.88 in 2.0 mi East 5.8 mph - 0.00 in Rain Light Rain
9:53 AM 63.0 °F 63.0 °F 100% 29.89 in 4.0 mi ESE 6.9 mph - 0.00 in Rain Light Rain
10:07 AM 62.6 °F 62.6 °F 100% 29.88 in 1.8 mi East 5.8 mph - 0.04 in Rain Rain
10:34 AM 62.6 °F 62.6 °F 100% 29.89 in 0.8 mi ESE 8.1 mph - 0.38 in Rain Heavy Rain
10:46 AM 62.6 °F 62.6 °F 100% 29.89 in 2.0 mi ESE 9.2 mph - 0.44 in Rain Rain
10:53 AM 63.0 °F 63.0 °F 100% 29.89 in 4.0 mi East 11.5 mph - 0.45 in Rain Light Rain
11:05 AM 62.6 °F 62.6 °F 100% 29.89 in 6.0 mi ESE 6.9 mph - 0.02 in Rain Light Rain
11:50 AM 62.6 °F 62.6 °F 100% 29.88 in 5.0 mi SSE 4.6 mph - 0.12 in Rain Light Rain
11:53 AM 63.0 °F 62.1 °F 97% 29.88 in 7.0 mi SSE 6.9 mph - 0.12 in Rain Light Rain
12:24 PM 64.4 °F 62.6 °F 94% 29.87 in 10.0 mi East 4.6 mph - 0.00 in   Overcast
12:53 PM 66.0 °F 64.0 °F 93% 29.86 in 10.0 mi ESE 4.6 mph - 0.00 in   Overcast
1:53 PM 66.9 °F 64.9 °F 93% 29.86 in 10.0 mi East 3.5 mph - N/A   Overcast
2:53 PM 66.0 °F 64.9 °F 96% 29.84 in 2.0 mi ESE 4.6 mph - 0.05 in Rain Rain
2:57 PM 66.2 °F 64.4 °F 94% 29.83 in 0.8 mi East 4.6 mph - 0.13 in Rain Heavy Rain
3:11 PM 66.2 °F 64.4 °F 94% 29.83 in 1.5 mi East 8.1 mph - 0.25 in Rain Heavy Rain
3:20 PM 66.2 °F 64.4 °F 94% 29.83 in 2.0 mi East 5.8 mph - 0.29 in Rain Rain
3:38 PM 66.2 °F 64.4 °F 94% 29.83 in 3.0 mi East 3.5 mph - 0.37 in Rain Rain
3:45 PM 66.2 °F 64.4 °F 94% 29.83 in 2.5 mi Calm Calm - 0.39 in Rain Rain
3:53 PM 66.0 °F 64.9 °F 96% 29.83 in 2.5 mi SE 3.5 mph - 0.42 in Rain Rain
4:02 PM 66.2 °F 64.4 °F 94% 29.83 in 1.2 mi Calm Calm - 0.08 in Rain Heavy Rain
4:12 PM 66.2 °F 64.4 °F 94% 29.83 in 1.5 mi ENE 3.5 mph - 0.15 in Rain Rain
4:18 PM 66.2 °F 64.4 °F 94% 29.83 in 2.0 mi Calm Calm - 0.19 in Rain Heavy Rain
4:35 PM 66.2 °F 64.4 °F 94% 29.82 in 1.5 mi ENE 4.6 mph - 0.29 in Rain Heavy Rain
4:41 PM 66.2 °F 64.4 °F 94% 29.82 in 2.0 mi ENE 4.6 mph - 0.31 in Rain Rain
4:50 PM 66.2 °F 64.4 °F 94% 29.82 in 4.0 mi ENE 5.8 mph - 0.32 in Rain Light Rain
4:53 PM 66.0 °F 64.9 °F 96% 29.82 in 5.0 mi ENE 5.8 mph - 0.33 in Rain Light Rain
5:01 PM 66.2 °F 64.4 °F 94% 29.82 in 4.0 mi ENE 4.6 mph - 0.01 in Rain Light Rain
5:29 PM 66.2 °F 64.4 °F 94% 29.81 in 1.8 mi ENE 3.5 mph - 0.03 in Rain Light Rain
5:42 PM 66.2 °F 64.4 °F 94% 29.80 in 2.5 mi East 3.5 mph - 0.03 in   Overcast
5:53 PM 66.0 °F 66.0 °F 100% 29.80 in 2.0 mi East 3.5 mph - 0.03 in   Overcast
6:05 PM 66.2 °F 66.2 °F 100% 29.80 in 1.8 mi ESE 3.5 mph - N/A   Overcast
6:11 PM 66.2 °F 66.2 °F 100% 29.79 in 3.0 mi East 5.8 mph - N/A   Overcast
6:37 PM 66.2 °F 66.2 °F 100% 29.80 in 2.0 mi SE 6.9 mph - N/A   Overcast
6:53 PM 66.0 °F 66.0 °F 100% 29.80 in 2.5 mi ESE 4.6 mph - 0.01 in Rain Light Rain
7:02 PM 66.2 °F 66.2 °F 100% 29.79 in 4.0 mi ESE 4.6 mph - 0.00 in Rain Light Rain
7:53 PM 66.0 °F 64.9 °F 96% 29.79 in 10.0 mi ESE 4.6 mph - 0.02 in Rain Light Rain
8:53 PM 66.0 °F 64.9 °F 96% 29.78 in 10.0 mi Calm Calm - 0.00 in   Overcast
9:53 PM 64.9 °F 64.9 °F 100% 29.77 in 9.0 mi Calm Calm - 0.00 in   Overcast
10:10 PM 64.4 °F 64.4 °F 100% 29.77 in 1.8 mi Calm Calm - N/A   Overcast
10:24 PM 64.4 °F 64.4 °F 100% 29.76 in 0.5 mi ESE 3.5 mph - N/A Fog Fog
10:37 PM 64.4 °F 64.4 °F 100% 29.76 in 0.2 mi Calm Calm - N/A Fog Fog
10:53 PM 64.9 °F 64.9 °F 100% 29.76 in 0.2 mi Calm Calm - N/A Fog Fog
11:29 PM 64.4 °F 64.4 °F 100% 29.76 in 0.2 mi Calm Calm - N/A Fog Fog
11:38 PM 64.4 °F 64.4 °F 100% 29.76 in 0.2 mi Calm Calm - N/A Fog Fog
11:48 PM 64.4 °F 64.4 °F 100% 29.75 in 0.2 mi Calm Calm - N/A Fog Fog
11:53 PM 64.9 °F 64.9 °F 100% 29.76 in 0.2 mi Calm Calm - N/A Fog Fog